Location: McFarlands Corners
(41.4117°N, 81.3382°W)
Time: 19:35:53
(UTC+00:00)

Transit 4A - Pass Details

Date: 23 February 2026
Orbit: 864 x 977 km, 66.8° (Epoch: 10 March)

Event Time Altitude Azimuth Distance (km) Brightness Sun altitude
Rises 15:16:18 0° 337° (NNW) 3,604 10.5 29.3°
Reaches altitude 10° 15:19:22 10° 351° (N) 2,676 9.9 29.7°
Maximum altitude 15:24:21 24° 44° (NE) 1,869 9.6 30.3°
Drops below altitude 10° 15:29:24 10° 97° (E) 2,712 11.1 30.9°
Sets 15:32:30 0° 111° (ESE) 3,664 11.8 31.3°
